Temp
56 56 56 59 59 58 58 58 59 60 60 63 62 62 61 62 64 65 66 67 67 65 64 62 62 62 61 60 60 59 58 58
58 58 57 56 56 56 57 57 59 60 59 61 61 62 63 62 63 66 66 67 66 65 62 63 61 61 61 60 59 58 56 55
60 58 58 58 58 58 58 59 60 60 60 65 64 64 63 66 66 65 67 67 67 64 62 61 60 60 60 59 58 55 55 54
60 58 59 59 58 59 60 61 62 63 62 63 65 65 63 61 61 65 67 68 66 65 63 62 60 59 58 57 56 56 53 53
63 61 60 60 60 62 63 63 63 65 65 63 63 63 63 65 62 63 64 66 65 66 65 63 60 60 58 57 58 57 57 54
63 63 63 63 63 63 64 65 65 66 65 65 63 62 66 64 65 61 64 62 63 63 62 61 61 62 60 58 58 58 56 54
65 66 67 66 66 64 64 65 65 66 66 66 66 64 63 63 61 63 62 61 61 63 63 61 61 59 59 58 57 57 53 53
64 65 65 67 67 66 66 67 66 67 67 67 66 63 64 65 60 62 59 60 58 59 60 59 59 58 58 57 55 53 52 51
66 67 68 69 69 69 68 68 68 69 68 67 68 67 64 63 62 59 61 61 60 60 59 59 58 57 56 54 52 51 50 49
69 70 70 71 71 71 69 70 70 70 69 67 67 66 66 64 60 60 60 58 57 57 58 56 57 55 54 52 51 49 49 47
72 72 71 72 73 73 71 71 71 72 68 67 68 68 61 61 60 58 59 58 57 56 56 55 55 54 52 51 49 48 48 47
66 70 72 74 74 72 70 69 67 69 69 69 67 64 60 61 60 60 59 58 56 55 54 54 53 52 51 49 49 48 48 46
69 69 68 68 72 67 67 67 65 67 67 66 65 62 61 60 59 59 59 57 55 54 54 54 53 52 50 49 47 49 47 45
67 68 69 68 67 69 67 65 65 67 68 66 62 61 62 60 58 57 56 54 55 54 54 53 51 50 49 49 48 46 45 45
66 65 67 68 67 66 67 67 67 67 67 62 58 58 56 56 55 54 53 54 53 52 52 51 50 49 48 47 46 45 45 45
67 65 65 65 65 63 63 62 63 63 61 58 56 55 55 55 53 52 52 51 51 50 49 47 47 47 47 45 46 45 44 44
70 69 66 66 65 62 62 60 59 60 57 56 57 57 56 54 53 51 51 49 48 47 46 45 45 47 41 42 44 43 45 44
67 67 66 64 63 62 59 59 59 58 57 58 57 55 53 53 53 51 48 44 42 41 41 42 42 43 41 41 40 42 42 42
64 63 60 61 61 61 59 59 57 56 54 54 54 52 50 50 49 47 43 42 41 41 41 42 42 43 40 40 39 41 38 38
MSLP
1015.55 1016.00 1016.35 1016.50 1016.85 1017.40 1017.81 1018.07 1018.38 1018.80 1018.93 1019.18 1019.59 1019.53 1019.67 1019.83 1020.07 1020.22 1020.34 1020.46 1020.77 1021.10 1021.37 1021.80 1021.75 1022.07 1022.43 1022.80 1023.06 1023.51 1023.75 1023.89
1015.26 1015.86 1016.33 1016.65 1017.10 1017.33 1017.86 1018.22 1018.52 1018.72 1019.23 1019.30 1019.42 1019.59 1019.93 1019.80 1019.83 1019.87 1020.02 1020.04 1020.29 1020.72 1021.18 1021.47 1021.82 1022.09 1022.24 1022.67 1022.99 1023.30 1023.67 1023.86
1014.44 1015.32 1015.99 1016.38 1016.70 1017.15 1017.70 1018.11 1018.28 1018.53 1018.89 1018.64 1018.92 1019.18 1019.23 1019.34 1019.35 1019.48 1019.57 1019.71 1020.03 1020.54 1020.91 1021.28 1021.48 1021.91 1022.14 1022.49 1022.71 1023.34 1023.53 1023.73
1013.28 1014.12 1014.78 1015.52 1016.00 1016.29 1016.74 1017.17 1017.54 1017.77 1018.02 1018.37 1018.60 1019.01 1019.19 1019.24 1019.23 1019.09 1018.94 1019.16 1019.45 1019.89 1020.17 1020.46 1021.02 1021.56 1022.03 1022.13 1022.33 1022.85 1023.57 1023.80
1011.98 1012.78 1013.64 1014.19 1014.68 1015.12 1015.54 1016.21 1016.75 1017.07 1017.44 1017.94 1018.24 1018.65 1018.58 1018.38 1018.41 1018.43 1018.46 1018.41 1018.92 1019.28 1019.55 1019.73 1020.19 1020.91 1021.52 1021.69 1021.80 1022.23 1022.91 1023.69
1010.66 1011.24 1012.06 1012.89 1013.65 1014.09 1014.57 1015.17 1015.75 1016.12 1016.61 1016.86 1017.36 1017.84 1017.29 1017.08 1017.38 1017.72 1018.08 1018.32 1018.70 1019.09 1019.31 1019.65 1019.99 1020.08 1020.64 1021.26 1021.57 1021.93 1022.49 1022.99
1009.53 1010.16 1011.06 1011.74 1012.48 1013.24 1013.67 1014.16 1014.40 1014.89 1015.33 1015.67 1016.37 1016.75 1016.57 1016.63 1016.77 1017.20 1017.55 1017.89 1018.43 1018.44 1018.94 1019.32 1019.28 1019.82 1020.31 1020.70 1021.16 1021.73 1022.36 1022.81
1008.25 1009.13 1009.86 1010.41 1011.00 1011.42 1011.96 1012.48 1012.93 1013.51 1014.00 1014.28 1014.84 1015.29 1015.32 1015.40 1015.74 1016.05 1016.95 1017.38 1017.92 1018.46 1018.54 1018.81 1018.79 1019.30 1019.93 1020.18 1020.83 1021.57 1022.37 1023.18
1006.46 1007.13 1007.78 1008.30 1008.87 1009.57 1010.71 1011.52 1012.18 1012.71 1013.20 1013.56 1014.04 1014.20 1013.40 1014.23 1015.11 1015.62 1015.92 1016.50 1016.95 1017.54 1017.86 1018.42 1018.68 1019.15 1019.59 1020.11 1020.98 1021.67 1022.28 1022.92
1005.04 1005.66 1006.12 1006.53 1007.03 1007.78 1008.95 1010.10 1010.88 1011.45 1011.90 1012.50 1012.82 1012.73 1013.26 1013.70 1014.53 1015.28 1015.41 1015.89 1016.53 1017.28 1017.50 1018.11 1018.67 1019.04 1019.65 1020.26 1020.99 1021.62 1022.25 1022.73
1003.79 1004.30 1004.77 1005.04 1005.41 1006.20 1007.37 1008.07 1008.62 1009.05 1009.95 1010.86 1011.29 1011.78 1012.81 1013.44 1013.88 1014.29 1015.13 1015.82 1016.45 1017.06 1017.39 1017.88 1018.44 1018.99 1019.63 1020.23 1021.01 1021.75 1022.15 1022.68
1003.41 1003.83 1004.03 1004.19 1004.65 1005.99 1006.86 1008.43 1009.46 1009.63 1009.31 1009.67 1010.35 1011.34 1012.54 1012.96 1013.48 1014.12 1014.46 1015.57 1016.18 1016.62 1017.12 1017.69 1018.34 1019.02 1019.58 1020.17 1020.90 1021.56 1022.15 1022.99
1002.47 1002.99 1003.25 1003.74 1004.57 1006.06 1006.78 1006.86 1007.58 1008.44 1008.66 1009.45 1010.29 1010.88 1011.40 1012.80 1013.15 1013.83 1014.07 1014.92 1015.68 1016.31 1017.04 1017.56 1018.29 1018.96 1019.58 1020.18 1020.89 1021.59 1022.23 1022.96
1002.30 1002.50 1002.79 1003.38 1004.02 1004.63 1005.63 1006.74 1006.93 1008.29 1009.19 1009.50 1010.35 1011.08 1011.94 1012.57 1012.97 1013.56 1013.91 1014.58 1015.40 1016.12 1016.83 1017.50 1018.16 1018.83 1019.41 1020.04 1020.69 1021.54 1022.24 1022.75
1002.15 1002.53 1002.75 1002.98 1003.65 1004.47 1005.53 1006.22 1006.82 1008.03 1008.78 1009.58 1010.14 1010.69 1011.43 1012.00 1012.87 1013.53 1014.26 1015.00 1015.41 1016.04 1016.78 1017.46 1018.15 1018.86 1019.55 1020.27 1020.93 1021.54 1022.07 1022.47
1002.06 1002.34 1002.74 1003.05 1003.53 1004.64 1005.62 1005.93 1006.27 1007.44 1008.06 1008.72 1009.49 1010.17 1011.12 1011.95 1013.03 1013.83 1014.63 1015.27 1015.73 1016.32 1017.00 1017.72 1018.37 1018.92 1019.58 1020.36 1020.86 1021.33 1021.91 1022.49
1001.44 1002.04 1002.91 1003.38 1003.85 1004.59 1005.51 1006.33 1006.74 1006.88 1007.51 1008.59 1009.44 1010.34 1011.33 1012.19 1013.04 1014.00 1014.84 1015.51 1016.15 1016.76 1017.35 1017.94 1018.64 1019.25 1019.83 1020.36 1020.91 1021.49 1021.93 1022.23
1001.37 1001.89 1002.81 1003.46 1004.21 1004.85 1005.45 1006.35 1007.09 1007.75 1008.28 1009.05 1009.73 1010.55 1011.62 1012.36 1013.32 1014.32 1015.31 1016.10 1016.64 1017.26 1017.80 1018.33 1018.98 1019.54 1020.01 1020.41 1020.88 1021.37 1021.87 1022.25
1001.60 1001.97 1002.87 1003.60 1004.28 1005.11 1005.84 1006.69 1007.54 1008.47 1009.54 1010.32 1010.83 1011.45 1012.15 1013.03 1013.90 1014.85 1015.87 1016.48 1017.05 1017.59 1018.12 1018.60 1019.12 1019.52 1019.95 1020.48 1020.98 1021.44 1021.84 1022.17
Wind_Speed
12 11 12 13 12 11 13 12 14 12 10 9 5 4 2 3 4 4 6 5 7 5 4 4 5 4 4 3 4 3 3 4
15 14 12 11 10 12 13 12 14 11 8 10 8 9 6 3 4 8 8 8 7 6 4 4 5 5 5 6 4 5 2 2
17 16 16 15 15 14 14 14 14 11 6 10 7 7 3 6 6 7 10 11 9 6 6 5 7 4 5 6 5 2 2 3
19 19 19 16 17 17 16 17 18 13 9 5 6 5 4 3 4 6 8 11 10 9 9 7 6 4 4 5 6 7 4 2
19 20 19 18 17 16 18 18 19 15 13 10 14 11 9 7 6 5 6 10 9 10 9 8 8 7 5 5 6 4 5 4
22 22 22 21 18 18 18 19 19 19 16 16 13 13 9 8 9 7 8 6 8 7 7 7 5 7 6 6 5 5 4 4
23 23 21 21 20 19 20 22 23 22 22 22 18 14 12 9 9 9 6 4 4 8 5 6 6 6 6 6 5 6 5 4
23 24 22 21 23 23 21 24 24 23 22 21 20 16 14 15 7 10 7 5 3 6 8 6 5 6 6 6 6 7 7 5
25 26 25 25 27 25 24 23 22 22 21 21 17 17 14 12 9 6 8 8 9 7 6 4 5 6 6 6 5 5 6 6
24 24 25 24 25 26 25 24 22 19 20 19 18 19 11 10 8 6 7 5 4 6 7 7 7 7 7 8 7 7 7 5
19 22 24 23 25 23 24 25 25 25 18 18 18 18 8 7 8 9 8 5 6 7 6 6 7 7 8 8 7 6 6 4
9 12 16 21 19 17 15 7 6 12 16 15 15 11 9 8 8 8 9 7 8 7 7 8 8 8 8 8 8 8 6 7
6 8 8 8 17 12 15 17 18 19 11 9 10 9 10 4 7 8 8 8 8 9 9 8 8 8 8 8 7 8 9 8
7 5 5 6 7 21 19 16 20 16 12 10 9 11 16 9 7 6 7 9 8 8 8 8 9 10 10 8 8 8 8 8
8 6 7 6 7 9 15 18 20 17 18 14 9 10 12 11 9 8 7 6 7 7 7 8 8 8 8 8 8 8 9 6
8 8 7 7 8 9 10 7 10 13 13 12 11 12 11 12 11 9 8 7 7 7 8 8 8 8 7 8 8 8 7 5
8 9 7 8 10 10 10 9 9 10 12 13 13 13 12 11 11 10 9 8 8 8 7 8 8 5 13 12 8 6 5 5
9 9 11 8 11 13 11 11 10 11 11 11 12 12 11 11 11 10 9 8 7 7 7 7 7 7 12 11 10 5 5 4
8 10 8 10 10 13 13 13 12 11 10 10 11 12 12 11 12 11 9 7 7 6 6 6 6 4 11 10 9 5 3 2
Wind_Direction
165 162 155 157 146 128 145 152 151 155 157 177 193 237 235 211 216 205 214 218 214 197 193 193 159 157 163 162 171 189 174 182
160 161 157 155 154 149 154 163 167 160 177 185 197 206 217 206 204 210 204 204 202 192 204 171 176 178 188 188 160 182 162 154
156 160 169 177 169 168 168 175 191 190 191 190 192 201 212 205 210 214 210 200 199 182 195 192 182 190 195 192 165 143 173 166
167 168 179 173 177 176 175 177 188 205 195 189 209 232 257 210 226 222 215 196 181 183 196 182 179 183 210 191 169 156 182 214
173 175 178 181 186 181 177 181 189 199 195 199 209 219 218 215 213 215 195 184 188 193 203 197 173 185 202 193 183 160 143 177
181 184 181 188 185 187 186 185 191 197 200 204 210 217 220 202 204 195 195 179 190 198 201 211 195 184 177 193 180 178 163 150
187 186 185 189 187 190 189 194 196 199 197 207 210 206 215 207 202 198 183 180 160 181 219 224 174 173 180 185 183 161 134 119
186 187 192 191 196 193 195 197 198 198 200 205 206 205 214 219 190 189 172 165 162 203 204 203 186 174 160 141 137 131 135 138
185 190 193 193 196 200 197 198 201 199 202 207 204 206 198 196 199 189 177 183 183 186 174 195 152 141 146 130 119 119 121 123
187 190 194 196 192 194 191 196 202 200 205 200 208 219 205 196 168 174 171 161 156 159 171 151 161 144 141 136 139 141 147 141
189 191 196 199 200 194 190 192 195 199 188 191 202 210 155 156 154 156 159 160 152 161 160 167 150 142 143 138 140 140 141 142
170 205 208 208 203 195 184 169 297 223 206 205 192 177 164 158 149 167 156 156 157 161 160 150 148 150 152 145 152 150 147 123
178 140 146 174 202 164 187 173 178 216 217 194 196 170 118 195 157 168 150 156 158 157 157 150 154 156 157 151 145 148 143 148
184 155 131 125 125 178 186 184 199 214 227 188 177 176 180 170 147 137 142 146 157 146 147 158 159 157 157 150 142 139 139 158
174 172 170 157 113 129 169 187 194 191 201 172 154 146 140 130 124 116 115 144 138 139 152 154 149 142 134 135 132 148 169 171
175 178 179 159 124 103 103 129 143 158 146 136 130 120 114 113 116 113 117 119 120 122 121 112 124 134 138 142 154 162 159 160
178 153 155 139 124 112 105 101 99 115 118 119 120 120 125 125 124 128 126 121 117 118 119 129 128 130 141 148 142 138 172 201
167 140 151 143 133 127 119 109 108 104 110 118 117 113 118 119 125 118 118 112 112 111 115 122 130 125 152 147 134 144 153 193
137 130 120 129 125 122 119 117 112 108 99 105 114 115 112 110 108 113 111 116 123 129 133 141 142 155 159 156 155 151 166 247